Weather History for Columbus, OH

Change the Weather History Date:

Tuesday, December 24, 2013

  Actual Average Record
Temperature  
Mean Temperature 21 °F 31 °F  
Max Temperature 29 °F 38 °F 66 °F (1889)
Min Temperature 13 °F 25 °F -12 °F (1983)
Degree Days  
Heating Degree Days 44 34  
Month to date heating degree days 719 736  
Since 1 July heating degree days 1781 1750  
Cooling Degree Days 0 0  
Month to date cooling degree days 0 0  
Year to date cooling degree days 1179 1024  
Moisture  
Dew Point 13 °F    
Average Humidity 73    
Maximum Humidity 84    
Minimum Humidity 61    
Precipitation  
Precipitation 0.02 in 0.10 in 1.63 in (2008)
Month to date precipitation 3.96 2.30  
Year to date precipitation 41.21 38.64  
Snow  
Snow 0.50 in 0.20 in 2.70 in (1980)
Month to date snowfall 12.5 3.5  
Since 1 July snowfall 17.2 4.6  
Snow Depth T in    
Sea Level Pressure  
Sea Level Pressure 30.44 in    
Wind  
Wind Speed 10 mph (WNW)    
Max Wind Speed 22 mph    
Max Gust Speed 28 mph    
Visibility 7 miles    
Events Snow    
T = Trace of Precipitation, MM = Missing Value Source: NWS Daily Summary

Daily Weather History Graph

Daily Weather History Graph

Search for Another Location

Airport:

Trip Planner

Search our weather history database for the weather conditions in past years. The results will help you decide how hot, cold, wet, or windy it might be!

Date:

Astronomy

Dec. 24, 2013 Rise Set
Actual Time 7:51 AM EST 5:11 PM EST
Civil Twilight 7:20 AM EST 5:41 PM EST
Nautical Twilight 6:46 AM EST 6:16 PM EST
Astronomical Twilight 6:13 AM EST 6:49 PM EST
Moon No Moon Rise 11:45 AM EST (12/24)
Length of Visible Light 10h 21m
Length of Day
9h 20m
Waning Gibbous, 59% of the Moon is Illuminated
Dec 24
Waning Gibbous
Dec 25
Last Quarter
Jan 1
New
Jan 7
First Quarter
Jan 15
Full

Hourly Weather History & Observations

Time (EST) Temp. Windchill Dew Point Humidity Pressure Visibility Wind Dir Wind Speed Gust Speed Precip Events Conditions
12:51 AM 28.0 °F 19.3 °F 18.0 °F 66% 30.35 in 10.0 mi West 9.2 mph - N/A   Overcast
1:51 AM 28.0 °F 20.0 °F 18.0 °F 66% 30.34 in 10.0 mi West 8.1 mph - N/A   Overcast
2:37 AM 26.6 °F 18.2 °F 21.2 °F 80% 30.31 in 2.0 mi WNW 8.1 mph - 0.00 in Snow Light Snow
2:44 AM 26.6 °F 17.5 °F 21.2 °F 80% 30.31 in 1.8 mi West 9.2 mph - 0.00 in Snow Light Snow
2:47 AM 26.6 °F 19.1 °F 21.2 °F 80% 30.31 in 2.0 mi West 6.9 mph - 0.00 in Snow Light Snow
2:51 AM 27.0 °F 20.5 °F 21.0 °F 78% 30.34 in 3.0 mi West 5.8 mph - 0.01 in Snow Light Snow
3:33 AM 26.6 °F 18.2 °F 21.2 °F 80% 30.31 in 2.5 mi West 8.1 mph - 0.00 in Snow Light Snow
3:42 AM 26.6 °F 16.2 °F 21.2 °F 80% 30.32 in 1.2 mi West 11.5 mph - 0.00 in Snow Light Snow
3:44 AM 26.6 °F 15.7 °F 21.2 °F 80% 30.32 in 1.2 mi West 12.7 mph - 0.00 in Snow Light Snow
3:51 AM 25.0 °F 13.1 °F 19.9 °F 81% 30.35 in 1.5 mi WNW 13.8 mph - 0.00 in Snow Light Snow
4:00 AM 24.8 °F 12.9 °F 19.4 °F 80% 30.32 in 1.8 mi WNW 13.8 mph - 0.00 in Snow Light Snow
4:13 AM 24.8 °F 11.5 °F 19.4 °F 80% 30.32 in 1.5 mi WNW 17.3 mph 20.7 mph 0.00 in Snow Light Snow
4:16 AM 24.8 °F 12.4 °F 19.4 °F 80% 30.32 in 1.2 mi NW 15.0 mph - 0.00 in Snow Light Snow
4:35 AM 21.2 °F 8.3 °F 17.6 °F 86% 30.32 in 1.5 mi WNW 13.8 mph - 0.01 in Snow Light Snow
4:41 AM 23.0 °F 11.1 °F 17.6 °F 80% 30.32 in 3.0 mi WNW 12.7 mph - 0.01 in Snow Light Snow
4:51 AM 21.9 °F 8.2 °F 17.1 °F 82% 30.35 in 3.0 mi WNW 16.1 mph - 0.01 in Snow Light Snow
5:03 AM 21.2 °F 7.3 °F 17.6 °F 86% 30.33 in 2.5 mi WNW 16.1 mph - 0.00 in Snow Light Snow
5:13 AM 21.2 °F 7.8 °F 15.8 °F 80% 30.33 in 4.0 mi NW 15.0 mph - 0.00 in Snow Light Snow
5:51 AM 19.9 °F 7.3 °F 12.9 °F 74% 30.38 in 9.0 mi NW 12.7 mph - 0.00 in   Mostly Cloudy
6:27 AM 17.6 °F 2.7 °F 8.6 °F 68% 30.36 in 10.0 mi WNW 16.1 mph - N/A   Scattered Clouds
6:51 AM 16.0 °F 0.1 °F 6.1 °F 65% 30.40 in 10.0 mi NW 17.3 mph - N/A   Partly Cloudy
7:51 AM 14.0 °F -1.4 °F 5.0 °F 67% 30.44 in 10.0 mi WNW 15.0 mph - N/A   Scattered Clouds
8:51 AM 12.9 °F -4.4 °F 5.0 °F 71% 30.47 in 10.0 mi WNW 18.4 mph 27.6 mph N/A   Mostly Cloudy
9:51 AM 14.0 °F -0.8 °F 5.0 °F 67% 30.51 in 9.0 mi WNW 13.8 mph 23.0 mph 0.00 in Snow Light Snow
10:51 AM 14.0 °F -0.8 °F 5.0 °F 67% 30.52 in 9.0 mi WNW 13.8 mph - 0.00 in   Scattered Clouds
11:51 AM 18.0 °F 6.1 °F 7.0 °F 62% 30.52 in 10.0 mi WNW 10.4 mph 16.1 mph N/A   Scattered Clouds
12:51 PM 18.0 °F 6.9 °F 8.1 °F 65% 30.52 in 10.0 mi WNW 9.2 mph - N/A   Scattered Clouds
1:51 PM 19.9 °F 12.1 °F 9.0 °F 62% 30.51 in 10.0 mi West 5.8 mph - N/A   Scattered Clouds
2:51 PM 19.0 °F 6.8 °F 9.0 °F 65% 30.53 in 10.0 mi NW 11.5 mph - N/A   Scattered Clouds
3:01 PM 19.4 °F 7.2 °F 8.6 °F 63% 30.49 in 10.0 mi WNW 11.5 mph - N/A   Mostly Cloudy
3:25 PM 19.4 °F 6.6 °F 8.6 °F 63% 30.50 in 10.0 mi West 12.7 mph - N/A   Scattered Clouds
3:51 PM 19.0 °F 6.8 °F 9.0 °F 65% 30.55 in 10.0 mi West 11.5 mph - N/A   Scattered Clouds
4:04 PM 19.4 °F 7.2 °F 8.6 °F 63% 30.51 in 10.0 mi West 11.5 mph - N/A   Mostly Cloudy
4:51 PM 19.0 °F 7.5 °F 10.0 °F 68% 30.56 in 10.0 mi WNW 10.4 mph - N/A   Overcast
5:51 PM 18.0 °F 7.7 °F 9.0 °F 68% 30.57 in 10.0 mi NW 8.1 mph - N/A   Mostly Cloudy
6:51 PM 18.0 °F 7.7 °F 9.0 °F 68% 30.58 in 10.0 mi NW 8.1 mph - N/A   Overcast
7:51 PM 18.0 °F 9.8 °F 9.0 °F 68% 30.60 in 10.0 mi NNE 5.8 mph - N/A   Overcast
8:51 PM 17.1 °F 11.7 °F 8.1 °F 68% 30.58 in 10.0 mi NE 3.5 mph - N/A   Mostly Cloudy
9:32 PM 15.8 °F - 8.6 °F 73% 30.53 in 10.0 mi Calm Calm - N/A   Partly Cloudy
9:51 PM 16.0 °F 10.4 °F 8.1 °F 71% 30.57 in 10.0 mi East 3.5 mph - N/A   Partly Cloudy
10:51 PM 16.0 °F 10.4 °F 8.1 °F 71% 30.56 in 10.0 mi East 3.5 mph - N/A   Clear
11:51 PM 16.0 °F 10.4 °F 8.1 °F 71% 30.56 in 10.0 mi SSE 3.5 mph - N/A   Clear